ORBCOMM FM116 [+] (41189 NORAD) Tracking and Keplerian Element Data

This shows tracking and keplerian element data for the satellite.

Feedback or suggestion? Click here.




ElementValue
Catalog41189
NameORBCOMM FM116 [+]
Epoch Orbit23754
Epoch Day154.51297095
Epoch Year2020
RAAN215.2882
Inclination47.0009
Eccentricity0.0003104
Argument of Perigee261.8011
Mean Anonmoly98.2521
Mean Motion14.5478794
Decay Rate-5.6E-07
L11 41189U 15081L 20154.51297095 -.00000056 00000-0 25367-4 0 9997
L22 41189 47.0009 215.2882 0003104 261.8011 98.2521 14.54787940237547

Live tracking and technical data element details for ORBCOMM FM116 [+] (NORAD 41189). ORBCOMM FM116 [+] can be tracked NOW for your location showing map with azimuth and elevation plus other details from your city location.

Track the satellite on the map from your city or location and see movement details for azimuth, elevation, latitude, longitude, range, height, and movement on the map or in text.







IsCatalogInMostPopularTable: catalog: 41189, numindb: 382
Update: records affected: 1



GetName: 41189 ORBCOMM FM116 [+]

Hit Count: updated at: Thu, 04 Jun 2020 08:40:58 GMT